When you browse on this site, cookies collect data to enhance your experience and personalize the content and advertising you see.
Visit our Privacy Policy to learn more. By continuing to use the site, you agree to this use of cookies and data.
  • In Österreich
  • Länderverzeichnis
  • Für 7 Tage
  • Wassertemperatur
  • Satellitenkarten
  • Wetterkarte
  • News
  • Widgets
  • user-avatar
    Anmelden

    Stündliche Wetter Povchin

    Heute, 23 Mai, Donnerstag

    Zeit Temperatur Niederschläge Wind Luftdruck Luftfeuchtigkeit
    00:00 +14°C° 0 mm 1 m/S 745 mmHg 86%
    01:00 +13°C° 0 mm 0 m/S 745 mmHg 86%
    02:00 +13°C° 0 mm 0 m/S 745 mmHg 86%
    03:00 +13°C° 0 mm 0 m/S 745 mmHg 86%
    04:00 +13°C° 0 mm 0 m/S 745 mmHg 85%
    05:00 +13°C° 0 mm 0 m/S 745 mmHg 85%
    06:00 +16°C° 0 mm 1 m/S 745 mmHg 79%
    07:00 +19°C° 0 mm 1 m/S 745 mmHg 72%
    08:00 +21°C° 0 mm 1 m/S 745 mmHg 65%
    09:00 +22°C° 0.4 mm 1 m/S 745 mmHg 62%
    10:00 +24°C° 0.4 mm 1 m/S 745 mmHg 59%
    11:00 +25°C° 0.4 mm 1 m/S 745 mmHg 56%
    12:00 +25°C° 0.2 mm 1 m/S 745 mmHg 54%
    13:00 +26°C° 0.2 mm 1 m/S 745 mmHg 52%
    14:00 +26°C° 0.2 mm 1 m/S 745 mmHg 50%
    15:00 +26°C° 0 mm 1 m/S 745 mmHg 50%
    16:00 +26°C° 0 mm 1 m/S 745 mmHg 50%
    17:00 +26°C° 0 mm 1 m/S 745 mmHg 50%
    18:00 +24°C° 0 mm 1 m/S 745 mmHg 56%
    19:00 +22°C° 0 mm 1 m/S 745 mmHg 62%
    20:00 +20°C° 0 mm 1 m/S 745 mmHg 68%
    21:00 +19°C° 0.1 mm 1 m/S 745 mmHg 72%
    22:00 +19°C° 0.1 mm 1 m/S 745 mmHg 75%
    23:00 +18°C° 0.1 mm 1 m/S 745 mmHg 78%

    Morgen, 24 Mai, Freitag

    Zeit Temperatur Niederschläge Wind Luftdruck Luftfeuchtigkeit
    00:00 +16°C° 0 mm 1 m/S 745 mmHg 79%
    01:00 +16°C° 0 mm 1 m/S 745 mmHg 81%
    02:00 +16°C° 0 mm 1 m/S 746 mmHg 82%
    03:00 +15°C° 0 mm 1 m/S 746 mmHg 84%
    04:00 +15°C° 0 mm 1 m/S 746 mmHg 85%
    05:00 +15°C° 0 mm 1 m/S 746 mmHg 86%
    06:00 +18°C° 0 mm 1 m/S 746 mmHg 80%
    07:00 +20°C° 0 mm 1 m/S 746 mmHg 74%
    08:00 +22°C° 0 mm 1 m/S 746 mmHg 69%
    09:00 +23°C° 0.8 mm 1 m/S 746 mmHg 66%
    10:00 +24°C° 0.8 mm 1 m/S 746 mmHg 64%
    11:00 +25°C° 0.8 mm 1 m/S 746 mmHg 62%
    12:00 +26°C° 0.1 mm 1 m/S 745 mmHg 58%
    13:00 +26°C° 0.1 mm 2 m/S 745 mmHg 53%
    14:00 +27°C° 0.1 mm 2 m/S 745 mmHg 49%
    15:00 +26°C° 1 mm 2 m/S 745 mmHg 57%
    16:00 +25°C° 1 mm 2 m/S 745 mmHg 65%
    17:00 +24°C° 1 mm 2 m/S 745 mmHg 73%
    18:00 +21°C° 0.7 mm 2 m/S 745 mmHg 79%
    19:00 +20°C° 0.7 mm 2 m/S 745 mmHg 84%
    20:00 +19°C° 0.7 mm 2 m/S 745 mmHg 89%
    21:00 +18°C° 1.2 mm 2 m/S 745 mmHg 91%
    22:00 +17°C° 1.2 mm 2 m/S 745 mmHg 93%
    23:00 +17°C° 1.2 mm 2 m/S 744 mmHg 94%

    übermorgen, 25 Mai, Samstag

    Zeit Temperatur Niederschläge Wind Luftdruck Luftfeuchtigkeit
    00:00 +16°C° 0.1 mm 1 m/S 744 mmHg 95%
    01:00 +16°C° 0.1 mm 1 m/S 744 mmHg 95%
    02:00 +16°C° 0.1 mm 1 m/S 744 mmHg 96%
    03:00 +15°C° 0 mm 1 m/S 744 mmHg 96%
    04:00 +15°C° 0 mm 1 m/S 744 mmHg 96%
    05:00 +15°C° 0 mm 2 m/S 744 mmHg 97%
    06:00 +16°C° 0 mm 2 m/S 744 mmHg 93%
    07:00 +18°C° 0 mm 2 m/S 744 mmHg 89%
    08:00 +19°C° 0 mm 2 m/S 744 mmHg 85%
    09:00 +20°C° 0.2 mm 3 m/S 744 mmHg 79%
    10:00 +21°C° 0.2 mm 3 m/S 744 mmHg 72%
    11:00 +23°C° 0.2 mm 4 m/S 744 mmHg 66%
    12:00 +23°C° 0.3 mm 4 m/S 744 mmHg 63%
    13:00 +23°C° 0.3 mm 4 m/S 744 mmHg 60%
    14:00 +25°C° 0.3 mm 4 m/S 744 mmHg 58%
    15:00 +23°C° 0.2 mm 4 m/S 744 mmHg 60%
    16:00 +23°C° 0.2 mm 4 m/S 744 mmHg 62%
    17:00 +22°C° 0.2 mm 4 m/S 744 mmHg 65%
    18:00 +20°C° 0.1 mm 3 m/S 744 mmHg 69%
    19:00 +19°C° 0.1 mm 3 m/S 744 mmHg 74%
    20:00 +17°C° 0.1 mm 2 m/S 744 mmHg 79%
    21:00 +16°C° 0 mm 2 m/S 744 mmHg 81%
    22:00 +15°C° 0 mm 2 m/S 745 mmHg 83%
    23:00 +14°C° 0 mm 1 m/S 745 mmHg 86%

    26 Mai, Sonntag

    Zeit Temperatur Niederschläge Wind Luftdruck Luftfeuchtigkeit
    00:00 +14°C° 0 mm 2 m/S 745 mmHg 88%
    01:00 +13°C° 0 mm 2 m/S 745 mmHg 91%
    02:00 +13°C° 0 mm 2 m/S 745 mmHg 93%
    03:00 +13°C° 0 mm 2 m/S 745 mmHg 94%
    04:00 +12°C° 0 mm 2 m/S 745 mmHg 95%
    05:00 +12°C° 0 mm 2 m/S 746 mmHg 96%
    06:00 +14°C° 0 mm 2 m/S 746 mmHg 88%
    07:00 +15°C° 0 mm 2 m/S 746 mmHg 80%
    08:00 +17°C° 0 mm 2 m/S 746 mmHg 72%
    09:00 +18°C° 0 mm 2 m/S 746 mmHg 67%
    10:00 +19°C° 0 mm 3 m/S 746 mmHg 62%
    11:00 +20°C° 0 mm 3 m/S 746 mmHg 56%
    12:00 +21°C° 0 mm 4 m/S 746 mmHg 54%
    13:00 +21°C° 0 mm 4 m/S 745 mmHg 52%
    14:00 +22°C° 0 mm 5 m/S 745 mmHg 49%
    15:00 +22°C° 0 mm 5 m/S 745 mmHg 51%
    16:00 +22°C° 0 mm 4 m/S 745 mmHg 53%
    17:00 +21°C° 0 mm 4 m/S 745 mmHg 55%
    18:00 +20°C° 0.2 mm 4 m/S 745 mmHg 64%
    19:00 +18°C° 0.2 mm 3 m/S 745 mmHg 74%
    20:00 +16°C° 0.2 mm 3 m/S 745 mmHg 83%
    21:00 +14°C° 0 mm 3 m/S 745 mmHg 87%
    22:00 +15°C° 0 mm 2 m/S 745 mmHg 90%
    23:00 +14°C° 0 mm 2 m/S 745 mmHg 94%

    27 Mai, Montag

    Zeit Temperatur Niederschläge Wind Luftdruck Luftfeuchtigkeit
    00:00 +13°C° 0 mm 2 m/S 746 mmHg 94%
    01:00 +13°C° 0 mm 2 m/S 746 mmHg 94%
    02:00 +12°C° 0 mm 2 m/S 746 mmHg 94%
    03:00 +12°C° 0 mm 2 m/S 746 mmHg 94%
    04:00 +12°C° 0 mm 2 m/S 747 mmHg 93%
    05:00 +10°C° 0 mm 3 m/S 747 mmHg 93%
    06:00 +12°C° 0 mm 3 m/S 747 mmHg 84%
    07:00 +13°C° 0 mm 3 m/S 747 mmHg 76%
    08:00 +16°C° 0 mm 3 m/S 748 mmHg 68%
    09:00 +17°C° 0 mm 3 m/S 748 mmHg 64%
    10:00 +18°C° 0 mm 4 m/S 748 mmHg 60%
    11:00 +20°C° 0 mm 4 m/S 748 mmHg 57%
    12:00 +20°C° 0 mm 4 m/S 748 mmHg 55%
    13:00 +21°C° 0 mm 3 m/S 748 mmHg 54%
    14:00 +22°C° 0 mm 3 m/S 748 mmHg 53%
    15:00 +22°C° 0 mm 3 m/S 748 mmHg 53%
    16:00 +23°C° 0 mm 2 m/S 747 mmHg 54%
    17:00 +23°C° 0 mm 2 m/S 747 mmHg 55%
    18:00 +21°C° 0 mm 2 m/S 747 mmHg 61%
    19:00 +20°C° 0 mm 1 m/S 747 mmHg 67%
    20:00 +19°C° 0 mm 1 m/S 747 mmHg 72%
    21:00 +18°C° 0 mm 1 m/S 747 mmHg 74%
    22:00 +16°C° 0 mm 2 m/S 747 mmHg 76%
    23:00 +16°C° 0 mm 2 m/S 747 mmHg 78%

    28 Mai, Dienstag

    Zeit Temperatur Niederschläge Wind Luftdruck Luftfeuchtigkeit
    00:00 +16°C° 0 mm 3 m/S 747 mmHg 78%
    01:00 +17°C° 0 mm 3 m/S 746 mmHg 78%
    02:00 +17°C° 0 mm 3 m/S 746 mmHg 78%
    03:00 +17°C° 0.9 mm 3 m/S 745 mmHg 84%
    04:00 +17°C° 0.9 mm 4 m/S 745 mmHg 89%
    05:00 +17°C° 0.9 mm 4 m/S 745 mmHg 95%
    06:00 +17°C° 1.3 mm 4 m/S 744 mmHg 94%
    07:00 +17°C° 1.3 mm 5 m/S 744 mmHg 93%
    08:00 +19°C° 1.3 mm 5 m/S 744 mmHg 92%
    09:00 +21°C° 0 mm 5 m/S 743 mmHg 83%
    10:00 +23°C° 0 mm 5 m/S 743 mmHg 74%
    11:00 +25°C° 0 mm 5 m/S 743 mmHg 66%
    12:00 +26°C° 0.5 mm 5 m/S 743 mmHg 67%
    13:00 +26°C° 0.5 mm 5 m/S 743 mmHg 68%
    14:00 +26°C° 0.5 mm 6 m/S 743 mmHg 69%
    15:00 +25°C° 1.6 mm 5 m/S 742 mmHg 73%
    16:00 +23°C° 1.6 mm 4 m/S 742 mmHg 78%
    17:00 +23°C° 1.6 mm 4 m/S 742 mmHg 83%
    18:00 +22°C° 1.2 mm 3 m/S 742 mmHg 85%
    19:00 +21°C° 1.2 mm 3 m/S 742 mmHg 88%
    20:00 +20°C° 1.2 mm 2 m/S 742 mmHg 90%
    21:00 +20°C° 0.2 mm 2 m/S 742 mmHg 92%
    22:00 +19°C° 0.2 mm 2 m/S 742 mmHg 93%
    23:00 +19°C° 0.2 mm 2 m/S 742 mmHg 94%
    Mehr zeigen